FDX266 MMGL-KOAK

Flight info

Callsign FDX266
Flight time N/A
Altitude 34000
Route SEDEM1B SEDEM UJ3 LMM DCT AXASA UT41 ASUTA J93 PDZ DCT COREZ DCT RGOOD EMZOH4
Aircraft B77L/H-SDE1E2E3FGHIJ2J3J4J5M1RWXY/LB1D1

Departure

Time N/A
Airport Guadalajara International Airport (MMGL)

Arrival

Time 2026-04-30 03:03
Airport San Francisco Bay Oakland International Airport (KOAK)
Time Latitude Longitude Altitude Speed Heading
2026-04-30 02:14 34.14337 -117.79185 34026 ft 494 kts 307°
2026-04-30 02:15 34.16807 -117.82072 34044 ft 494 kts 307°
2026-04-30 02:15 34.21732 -117.87838 34006 ft 492 kts 307°
2026-04-30 02:16 34.26639 -117.93578 34012 ft 491 kts 307°
2026-04-30 02:16 34.31544 -117.99327 34004 ft 491 kts 307°
2026-04-30 02:17 34.36430 -118.05071 33999 ft 489 kts 307°
2026-04-30 02:17 34.41292 -118.10796 33984 ft 486 kts 307°
2026-04-30 02:18 34.46134 -118.16502 33980 ft 485 kts 306°
2026-04-30 02:18 34.50967 -118.22215 34020 ft 485 kts 307°
2026-04-30 02:19 34.55802 -118.27940 34007 ft 486 kts 307°
2026-04-30 02:19 34.60640 -118.33672 34011 ft 486 kts 307°
2026-04-30 02:20 34.65472 -118.39409 34008 ft 486 kts 307°
2026-04-30 02:20 34.70309 -118.45163 34011 ft 487 kts 308°
2026-04-30 02:21 34.75146 -118.50927 34012 ft 487 kts 308°
2026-04-30 02:21 34.79995 -118.56710 34015 ft 488 kts 308°
2026-04-30 02:22 34.84844 -118.62507 34030 ft 489 kts 308°
2026-04-30 02:22 34.89699 -118.68322 34044 ft 490 kts 309°
2026-04-30 02:23 34.94565 -118.74164 34044 ft 492 kts 309°
2026-04-30 02:23 34.99451 -118.80032 34018 ft 494 kts 309°
2026-04-30 02:24 35.04308 -118.85881 34016 ft 495 kts 310°
2026-04-30 02:24 35.09213 -118.91796 34010 ft 496 kts 310°
2026-04-30 02:25 35.14129 -118.97735 34014 ft 498 kts 311°
2026-04-30 02:25 35.19058 -119.03702 33995 ft 500 kts 311°
2026-04-30 02:26 35.24004 -119.09704 33985 ft 502 kts 313°
2026-04-30 02:26 35.28968 -119.15730 33988 ft 503 kts 313°
2026-04-30 02:27 35.33939 -119.21780 33978 ft 504 kts 313°
2026-04-30 02:27 35.38911 -119.27845 33984 ft 505 kts 315°
2026-04-30 02:28 35.43893 -119.33929 33983 ft 506 kts 315°
2026-04-30 02:28 35.48876 -119.40028 33985 ft 506 kts 314°
2026-04-30 02:29 35.53859 -119.46136 33977 ft 507 kts 315°
2026-04-30 02:29 35.59072 -119.51975 33988 ft 508 kts 321°
2026-04-30 02:30 35.64550 -119.57496 33993 ft 511 kts 321°
2026-04-30 02:30 35.70051 -119.63060 33990 ft 512 kts 321°
2026-04-30 02:31 35.75497 -119.68636 33996 ft 512 kts 321°
2026-04-30 02:31 35.80971 -119.74268 33993 ft 512 kts 321°
2026-04-30 02:32 35.86433 -119.79895 33991 ft 511 kts 321°
2026-04-30 02:32 35.91860 -119.85517 33994 ft 508 kts 319°
2026-04-30 02:33 35.97003 -119.91483 33997 ft 507 kts 316°
2026-04-30 02:33 36.02021 -119.97583 34004 ft 505 kts 316°
2026-04-30 02:34 36.07043 -120.03624 34011 ft 502 kts 317°
2026-04-30 02:34 36.12058 -120.09597 34001 ft 499 kts 317°
2026-04-30 02:35 36.17000 -120.15476 33989 ft 478 kts 317°
2026-04-30 02:35 36.19351 -120.18283 33994 ft 461 kts 317°
2026-04-30 02:35 36.21620 -120.20995 33998 ft 446 kts 317°
2026-04-30 02:35 36.23816 -120.23620 33991 ft 433 kts 317°
2026-04-30 02:36 36.25988 -120.26219 33778 ft 437 kts 317°
2026-04-30 02:36 36.28180 -120.28840 33404 ft 438 kts 317°
2026-04-30 02:36 36.30359 -120.31450 32966 ft 434 kts 317°
2026-04-30 02:36 36.32517 -120.34037 32519 ft 430 kts 317°
2026-04-30 02:37 36.34657 -120.36607 32069 ft 426 kts 317°
2026-04-30 02:37 36.36778 -120.39154 31628 ft 422 kts 317°
2026-04-30 02:37 36.38880 -120.41682 31201 ft 419 kts 317°
2026-04-30 02:37 36.40961 -120.44187 30772 ft 416 kts 317°
2026-04-30 02:38 36.43032 -120.46679 30326 ft 412 kts 317°
2026-04-30 02:38 36.45081 -120.49149 29870 ft 409 kts 317°
2026-04-30 02:38 36.47117 -120.51604 29388 ft 406 kts 317°
2026-04-30 02:38 36.49132 -120.54036 28926 ft 402 kts 317°
2026-04-30 02:39 36.51127 -120.56446 28495 ft 398 kts 317°
2026-04-30 02:39 36.53100 -120.58830 28065 ft 394 kts 317°
2026-04-30 02:39 36.55076 -120.61161 27627 ft 390 kts 319°
2026-04-30 02:39 36.57093 -120.63401 27207 ft 387 kts 320°
2026-04-30 02:40 36.59107 -120.65595 26784 ft 383 kts 320°
2026-04-30 02:40 36.61106 -120.67773 26366 ft 381 kts 320°
2026-04-30 02:40 36.63085 -120.69942 25948 ft 378 kts 320°
2026-04-30 02:40 36.65044 -120.72102 25539 ft 375 kts 320°
2026-04-30 02:41 36.66989 -120.74255 25134 ft 373 kts 320°
2026-04-30 02:41 36.68897 -120.76373 24733 ft 371 kts 320°
2026-04-30 02:41 36.70817 -120.78507 24306 ft 370 kts 320°
2026-04-30 02:41 36.72731 -120.80636 23904 ft 368 kts 320°
2026-04-30 02:42 36.74636 -120.82755 23461 ft 366 kts 320°
2026-04-30 02:42 36.76532 -120.84866 22996 ft 364 kts 320°
2026-04-30 02:42 36.78415 -120.86962 22573 ft 361 kts 320°
2026-04-30 02:42 36.80286 -120.89034 22165 ft 358 kts 320°
2026-04-30 02:43 36.82139 -120.91087 21766 ft 355 kts 320°
2026-04-30 02:43 36.83980 -120.93125 21371 ft 352 kts 320°
2026-04-30 02:43 36.85801 -120.95144 20987 ft 349 kts 320°
2026-04-30 02:43 36.87611 -120.97152 20596 ft 347 kts 320°
2026-04-30 02:44 36.89408 -120.99147 20218 ft 344 kts 320°
2026-04-30 02:44 36.91189 -121.01127 19839 ft 341 kts 320°
2026-04-30 02:44 36.92957 -121.03094 19472 ft 339 kts 320°
2026-04-30 02:44 36.94712 -121.05047 19093 ft 337 kts 320°
2026-04-30 02:45 36.96458 -121.06991 18721 ft 335 kts 320°
2026-04-30 02:45 36.97630 -121.08298 18483 ft 334 kts 320°
2026-04-30 02:45 36.99359 -121.10225 18071 ft 332 kts 320°
2026-04-30 02:45 37.01076 -121.12141 17671 ft 329 kts 320°
2026-04-30 02:46 37.02777 -121.14040 17289 ft 326 kts 320°
2026-04-30 02:46 37.04438 -121.15896 16923 ft 323 kts 320°
2026-04-30 02:46 37.06105 -121.17759 16570 ft 319 kts 320°
2026-04-30 02:46 37.07780 -121.19632 16215 ft 319 kts 320°
2026-04-30 02:47 37.09407 -121.21455 15874 ft 318 kts 320°
2026-04-30 02:47 37.11055 -121.23299 15523 ft 318 kts 320°
2026-04-30 02:47 37.12699 -121.25141 15116 ft 317 kts 320°
2026-04-30 02:47 37.14328 -121.26989 14713 ft 315 kts 319°
2026-04-30 02:48 37.15931 -121.28843 14373 ft 312 kts 319°
2026-04-30 02:48 37.17512 -121.30686 14036 ft 309 kts 318°
2026-04-30 02:48 37.19082 -121.32518 13656 ft 308 kts 318°
2026-04-30 02:48 37.20643 -121.34338 13277 ft 305 kts 319°
2026-04-30 02:49 37.22196 -121.36149 12911 ft 305 kts 319°
2026-04-30 02:49 37.23750 -121.37959 12579 ft 305 kts 319°
2026-04-30 02:49 37.25301 -121.39765 12220 ft 303 kts 319°
2026-04-30 02:49 37.26836 -121.41557 11893 ft 300 kts 319°
2026-04-30 02:50 37.28366 -121.43341 11560 ft 300 kts 319°
2026-04-30 02:50 37.29899 -121.45127 11232 ft 301 kts 319°
2026-04-30 02:50 37.31432 -121.46918 10890 ft 300 kts 320°
2026-04-30 02:50 37.32956 -121.48698 10560 ft 297 kts 319°
2026-04-30 02:51 37.34460 -121.50456 10218 ft 294 kts 320°
2026-04-30 02:51 37.35937 -121.52185 10051 ft 284 kts 319°
2026-04-30 02:51 37.37366 -121.53856 9709 ft 282 kts 319°
2026-04-30 02:51 37.38816 -121.55526 9263 ft 282 kts 320°
2026-04-30 02:52 37.40258 -121.57169 8933 ft 278 kts 320°
2026-04-30 02:52 37.41681 -121.58790 8608 ft 274 kts 320°
2026-04-30 02:52 37.43083 -121.60392 8287 ft 270 kts 320°
2026-04-30 02:52 37.44413 -121.62018 8013 ft 264 kts 311°
2026-04-30 02:53 37.45490 -121.63851 7831 ft 255 kts 307°
2026-04-30 02:53 37.46473 -121.65647 7637 ft 244 kts 306°
2026-04-30 02:53 37.47415 -121.67347 7395 ft 236 kts 307°
2026-04-30 02:53 37.48369 -121.69049 7024 ft 234 kts 306°
2026-04-30 02:54 37.49306 -121.70713 6671 ft 232 kts 307°
2026-04-30 02:54 37.50242 -121.72362 6319 ft 230 kts 306°
2026-04-30 02:54 37.51153 -121.73963 6172 ft 225 kts 307°
2026-04-30 02:54 37.52078 -121.75589 6173 ft 227 kts 307°
2026-04-30 02:55 37.52984 -121.77229 6163 ft 228 kts 298°
2026-04-30 02:55 37.53410 -121.79132 6038 ft 232 kts 276°
2026-04-30 02:55 37.53590 -121.81165 5874 ft 234 kts 278°
2026-04-30 02:55 37.53822 -121.83193 5702 ft 233 kts 279°
2026-04-30 02:56 37.54059 -121.85203 5537 ft 230 kts 279°
2026-04-30 02:56 37.54288 -121.87153 5361 ft 220 kts 279°
2026-04-30 02:56 37.54507 -121.89026 5228 ft 213 kts 279°
2026-04-30 02:56 37.54723 -121.90869 5094 ft 212 kts 279°
2026-04-30 02:57 37.54937 -121.92706 4956 ft 212 kts 279°
2026-04-30 02:57 37.55151 -121.94547 4804 ft 212 kts 279°
2026-04-30 02:57 37.55366 -121.96382 4664 ft 212 kts 279°
2026-04-30 02:57 37.55579 -121.98213 4525 ft 211 kts 279°
2026-04-30 02:58 37.55882 -122.00000 4312 ft 209 kts 297°
2026-04-30 02:58 37.56754 -122.01441 4093 ft 206 kts 313°
2026-04-30 02:58 37.57708 -122.02801 3824 ft 208 kts 310°
2026-04-30 02:58 37.58638 -122.04172 3523 ft 203 kts 309°
2026-04-30 02:59 37.59536 -122.05510 3229 ft 196 kts 308°
2026-04-30 02:59 37.60397 -122.06801 2972 ft 189 kts 308°
2026-04-30 02:59 37.61230 -122.08051 2706 ft 182 kts 309°
2026-04-30 02:59 37.62041 -122.09263 2494 ft 184 kts 309°
2026-04-30 03:00 37.62857 -122.10488 2252 ft 180 kts 309°
2026-04-30 03:00 37.63646 -122.11671 2002 ft 173 kts 309°
2026-04-30 03:00 37.64402 -122.12804 1757 ft 163 kts 308°
2026-04-30 03:00 37.65104 -122.13858 1575 ft 152 kts 308°
2026-04-30 03:01 37.65752 -122.14828 1368 ft 140 kts 308°
2026-04-30 03:01 37.66382 -122.15778 1201 ft 142 kts 308°
2026-04-30 03:01 37.67019 -122.16733 1007 ft 141 kts 307°
2026-04-30 03:01 37.67658 -122.17660 782 ft 140 kts 310°
2026-04-30 03:02 37.68303 -122.18581 623 ft 139 kts 307°
2026-04-30 03:02 37.68896 -122.19549 456 ft 140 kts 307°
2026-04-30 03:02 37.69538 -122.20494 309 ft 145 kts 307°
2026-04-30 03:02 37.70194 -122.21493 61 ft 147 kts 306°
2026-04-30 03:03 37.70779 -122.22379 8 ft 93 kts 310°
2026-04-30 03:03 37.71058 -122.22627 9 ft 13 kts 347°
2026-04-30 03:03 37.71144 -122.22617 13 ft 13 kts 25°
2026-04-30 03:04 37.71207 -122.22539 14 ft 13 kts 50°
2026-04-30 03:04 37.71269 -122.22447 14 ft 17 kts 49°
2026-04-30 03:04 37.71339 -122.22330 16 ft 17 kts 72°
2026-04-30 03:04 37.71349 -122.22184 16 ft 17 kts 71°
2026-04-30 03:05 37.71421 -122.22067 18 ft 17 kts 47°
2026-04-30 03:05 37.71500 -122.21956 19 ft 17 kts 49°
2026-04-30 03:05 37.71581 -122.21839 21 ft 17 kts 49°
2026-04-30 03:05 37.71659 -122.21725 25 ft 17 kts 48°
2026-04-30 03:06 37.71757 -122.21705 24 ft 15 kts 315°
2026-04-30 03:06 37.71808 -122.21807 23 ft 12 kts 300°
2026-04-30 03:06 37.71842 -122.21861 25 ft 0 kts 310°